Regional Weather Roundup
Issued by NWS

Home | Current Version | Previous Version | Graphics & Text | Print | Product List | Glossary On
Versions: 1 2 3 4 5 6 7 8 9 10 11 12 13 14 15 16 17 18 19 20 21 22 23 24 25 26 27 28 29 30 31 32 33 34 35 36 37 38 39 40 41 42 43 44 45 46 47 48 49 50
000
ASUS43 KIND 282359
RWRIN

WEATHER ROUNDUP FOR INDIANA
NATIONAL WEATHER SERVICE INDIANAPOLIS IN
800 PM EDT TUE JUL 28 2015

NOTE: "FAIR" INDICATES FEW OR NO CLOUDS BELOW 12,000 FEET WITH NO
SIGNIFICANT WEATHER AND/OR OBSTRUCTIONS TO VISIBILITY.

* - STATION DOES NOT REPORT WEATHER SUCH AS PRECIPITATION OR FOG.

+ - STATION NOT QUALITY CONTROLLED BY THE NATIONAL WEATHER SERVICE.
    USE DATA WITH CAUTION...ESPECIALLY DEWPOINT AND RELATIVE
    HUMIDITY OBSERVATIONS.

INZ001>003-010>013-019-020-290100-
NORTHWEST INDIANA

CITY           SKY/WX    TMP DP  RH WIND       PRES   REMARKS
KNOX *+        SUNNY     84  70  61 S5        29.93R
MONTICELLO +   SUNNY     85  74  69 CALM      29.92R
6HR MIN TEMP:  85; 6HR MAX TEMP:  90;

RENSSELAER +   MOSUNNY   86  73  66 CALM      29.93R

$$

LMZ046-743>745-290100-
SOUTHERN LAKE MICHIGAN

STATION/POSITION TIME  TEMP    WIND        PRES    WAVE
                       AIR SEA DIR/SP/G            HT
                 (UTC) (F)     (DEG/KT/KT) (MB)    (FT)
BURNS HARBOR     2300   89     160/  6/ 12 1012.9R
MICHIGAN CITY    2300   86     140/  9/ 13   N/A
5NW MICH CITY    2300   83 76  170/  8/ 10   N/A     1

$$

INZ004-005-014>016-021>024-290100-
NORTH CENTRAL INDIANA

CITY           SKY/WX    TMP DP  RH WIND       PRES   REMARKS
ELKHART        SUNNY     86  66  51 SE8       29.94R
GOSHEN         SUNNY     85  70  60 SE5       29.93S
6HR MIN TEMP:  85; 6HR MAX TEMP:  89;

SOUTH BEND     SUNNY     87  69  54 S8        29.95R
6HR MIN TEMP:  87; 6HR MAX TEMP:  90;

WARSAW +       SUNNY     84  72  65 CALM      29.93R

$$

INZ006>009-017-018-025>027-290100-
NORTHEAST INDIANA

CITY           SKY/WX    TMP DP  RH WIND       PRES   REMARKS
ANGOLA *+      SUNNY     84  68  58 SE5       29.95S
FORT WAYNE     MOCLDY    86  68  54 SE5       29.94S
6HR MIN TEMP:  86; 6HR MAX TEMP:  90;


$$

INZ028-029-035-036-043>045-051>053-290100-
WEST CENTRAL INDIANA

CITY           SKY/WX    TMP DP  RH WIND       PRES   REMARKS
CRAWFORDSVL +  SUNNY     83  73  72 CALM        N/A
6HR MIN TEMP:  83; 6HR MAX TEMP:  87; 6HR PCP:  0.02;

GREENCASTLE +  SUNNY     82  72  69 CALM      29.93S
LAFAYETTE      SUNNY     83  74  74 SE3       29.91R
6HR MIN TEMP:  83; 6HR MAX TEMP:  90;

TERRE HAUTE    CLOUDY    86  75  69 S5        29.92R HX  95
6HR MIN TEMP:  86; 6HR MAX TEMP:  93; 6HR PCP: TRACE;


$$

INZ030>032-037>040-046>048-054>057-064-065-290100-
CENTRAL INDIANA

CITY           SKY/WX    TMP DP  RH WIND       PRES   REMARKS
COLUMBUS       CLEAR     82  68  61 CALM      29.91F
GREENWOOD *+   PTSUNNY   84  72  65 SE3       29.94R
INDIANAPOLIS   PTSUNNY   86  72  62 E6        29.92R
6HR MIN TEMP:  86; 6HR MAX TEMP:  92;

-EAGLE CREEK   PTSUNNY   85  72  65 SE6       29.92R
6HR MIN TEMP:  85; 6HR MAX TEMP:  91;

KOKOMO *+      SUNNY     84  73  70 SE3       29.93R
6HR MIN TEMP:  84; 6HR MAX TEMP:  91;

MT COMFORT *+  PTSUNNY   82  82 100 CALM      29.93S HX  97
SHELBYVILLE    MOCLDY    86  77  74 CALM      29.91F HX  97
6HR MIN TEMP:  80; 6HR MAX TEMP:  92; 6HR PCP:  0.20;


$$

INZ033-034-041-042-049-050-058-059-290100-
EAST CENTRAL INDIANA

CITY           SKY/WX    TMP DP  RH WIND       PRES   REMARKS
MUNCIE         PTCLDY    84  71  65 SE7       29.93F
6HR MIN TEMP:  83; 6HR MAX TEMP:  89; 6HR PCP: TRACE;


$$

INZ060-061-067>069-081>083-085>088-290100-
SOUTHWEST INDIANA

CITY           SKY/WX    TMP DP  RH WIND       PRES   REMARKS
EVANSVILLE     MOSUNNY   84  73  69 W18G29    29.94R
6HR MIN TEMP:  84; 6HR MAX TEMP:  94;

HUNTINGBURG *+ MOSUNNY   88  77  70 SW6       29.92F HX 100
6HR MIN TEMP:  88; 6HR MAX TEMP:  91;


$$

INZ062-063-066-070>080-084-089>092-290100-
SOUTH CENTRAL AND SOUTHEAST INDIANA

CITY           SKY/WX    TMP DP  RH WIND       PRES   REMARKS
BLOOMINGTON    SUNNY     86  77  74 NW3       29.93S HX  97
6HR MIN TEMP:  86; 6HR MAX TEMP:  92;

MADISON *+     PTCLDY    86  72  62 CALM      29.95S
SEYMOUR +      PTCLDY    86  77  74 CALM      29.91F HX  97

$$



USA.gov is the U.S. government's official web portal to all federal, state and local government web resources and services.